Flag for Switzerland Weather past 2 weeks in Geneva, Geneva, Switzerland

Now
40 °F

Quite cool.


Feels Like: 33 °F
Forecast: 31 / 47 °F
Wind: 12 mph from Northeast

Location: Geneve-Cointrin

Current Time: Mar 5, 2015 at 9:12:53 PM

Latest Report: Mar 5, 2015 at 8:00 PM


Visibility: N/A

Pressure: 30.54 "Hg

Humidity: 58%

Dew point: 26 °F

Location of GenevaLocation

Historic Weather in Geneva — Graph

°F

Geneva temperature yesterday

Maximum temperature yesterday: 46 °F (at 1:00 AM)
Minimum temperature yesterday: 37 °F (at 9:00 PM)
Average temperature yesterday: 42 °F

Past Weeks' High & Low Weather Summary

 TemperatureHumidityPressure
High54 °F (Mar 3, 3:00 PM)95% (Feb 21, 1:00 PM)30.67 "Hg (Feb 21, 1:00 PM)
Low27 °F (Feb 20, 5:00 AM)23% (Feb 20, 3:00 PM)29.62 "Hg (Feb 21, 10:00 AM)
Average40 °F73%30.10 "Hg
* Reported Feb 18 7:00 PM — Mar 5 7:00 PM, Geneva, Weather by CustomWeather, © 2015

Note: Actual official high and low records may vary slightly from our data, if they occured in-between our weather recording intervals... More about our weather records

Advertising

Geneva weather history for previous 24 hours

 ConditionsComfort  
Time TempWeatherWind HumidityBarometerVisibility
7:00 PM
Thu, Mar 5
41 °FPassing clouds.14 mph48%30.53 "Hg31 mi
6:00 PM43 °FQuite cool.20 mph39%30.51 "HgN/A
5:00 PM44 °FQuite cool.22 mph40%30.50 "HgN/A
4:00 PM45 °FPassing clouds.23 mph41%30.50 "Hg43 mi
3:00 PM45 °FQuite cool.24 mph42%30.50 "HgN/A
2:00 PM45 °FQuite cool.24 mph44%30.51 "HgN/A
1:00 PM43 °FPassing clouds.26 mph47%30.52 "Hg43 mi
12:00 PM43 °FQuite cool.26 mph46%30.54 "HgN/A
11:00 AM42 °FQuite cool.25 mph49%30.53 "HgN/A
10:00 AM40 °FPassing clouds.25 mph58%30.53 "Hg43 mi
9:00 AM39 °FChilly.18 mph61%30.53 "HgN/A
8:00 AM36 °FChilly.16 mph65%30.52 "HgN/A
7:00 AM36 °FPassing clouds.16 mph71%30.52 "Hg43 mi
6:00 AM36 °FChilly.16 mph75%30.51 "HgN/A
5:00 AM37 °FChilly.20 mph71%30.50 "HgN/A
3:00 AM38 °FChilly.14 mph60%30.48 "HgN/A
2:00 AM38 °FChilly.17 mph60%30.48 "HgN/A
1:00 AM39 °FPassing clouds.16 mph65%30.48 "Hg43 mi
12:00 AM39 °FChilly.15 mph62%30.48 "HgN/A
11:00 PM
Wed, Mar 4
39 °FChilly.10 mph56%30.46 "HgN/A
10:00 PM39 °FPassing clouds.12 mph54%30.45 "Hg43 mi
9:00 PM37 °FChilly.9 mph57%30.45 "HgN/A
Weather by CustomWeather, © 2015

See weather overviewHow to use our weather pages